335 visiteurs
Prévisions de votre ville :
Vigilance : 79 départements 14 départements Mise à jour le 12/12/2019 à 16:10 - Voir la carte

Paris Roissy CDG (95380) le 13/12/2019 à 01:30 Choisir station

8°C 93 % SSO Vit. moyenne 26 kmh/h

Relevés météo quotidiens pour la station de :

UTC
S: Synop
M: Metar
Loc T°C
(°C)
Td
(°C)
HR
(%)
Vis
(km)
Néb
(octa)
Vent
(km/h)
Pression
(mb)
Précipitations
(mm)
Temps
              MOY
10 min
DIR RAF 1h MESURE VAR SUR 3h    
S 00 h 02h 24.9 17.4 63 20 - 4 11 1011.5 -0.7/3h 0.0/6h - 0.0/3h -
S 01 h 03h 24.2 17.4 66 20 - 6 7 1011.2 -0.9/3h 0.0/1h -
S 02 h 04h 24.5 17.2 64 19 - 6 7 1010.8 -1.1/3h 0.0/1h -
S 03 h 05h 24.6 17.6 65 20 - 7 11 1010.5 -1.0/3h 0.0/3h -
S 04 h 06h 26.7 16.3 53 20 - 7 11 1010.1 -1.0/3h 0.0/1h -
S 05 h 07h 25.3 16.2 57 20 - 7 19 1010.7 -0.1/3h 0.0/1h -
S 06 h 08h 27.9 15.5 47 20 - 9 17 1011.0 +0.6/3h 0.0/12h - 0.0/3h - 0.0/24h -
S 07 h 09h 29.0 14.8 42 20 - 26 35 1010.6 +0.5/3h 0.0/1h -
S 08 h 10h 31.3 14.0 35 19 - 22 33 1011.0 +0.5/3h 0.0/1h -
S 09 h 11h 32.7 14.3 33 19 - 13 20 1010.4 -0.5/3h 0.0/3h -
S 10 h 12h 35.0 15.3 31 19 - 20 37 1010.0 -0.5/3h 0.0/1h -
S 11 h 13h 36.1 15.3 29 19 - 19 37 1010.2 -0.7/3h 0.0/1h -
S 12 h 14h 36.2 14.2 27 20 - 13 30 1009.9 -0.4/3h 0.0/6h - 0.0/3h -
S 13 h 15h 37.6 14.8 26 19 - 17 30 1009.7 -0.2/3h 0.0/1h -
S 14 h 16h 35.9 16.1 31 19 - 22 41 1009.7 -0.5/3h 0.0/1h -
S 15 h 17h 35.6 15.4 30 19 - 11 19 1009.4 -0.5/3h 0.0/3h -
S 16 h 18h 33.1 16.9 38 19 - 26 39 1009.5 -0.3/3h 0.0/1h -
S 17 h 19h 31.0 20.6 54 18 - 22 35 1009.6 -0.2/3h 0.0/1h -
S 18 h 20h 29.6 19.9 56 19 - 19 31 1010.2 +0.6/3h 0.0/12h - 0.0/3h -
S 19 h 21h 28.4 19.3 58 19 - 15 26 1010.2 +0.6/3h 0.0/1h -
S 20 h 22h 26.9 17.4 56 20 - 7 13 1010.2 +0.5/3h 0.0/1h -
S 21 h 23h 25.5 14.9 52 20 - 17 33 1011.1 +0.8/3h 0.0/3h -
S 22 h 00h 24.1 16.6 63 20 - 20 33 1011.9 +1.6/3h 0.0/1h -
S 23 h 01h 22.5 17.4 73 20 - 22 43 1014.4 +4.0/3h 0.0/1h -
evolution des temperatures
cumul des precipitations
vent moyen et rafales
pression atmospherique

Un tiret (-) signifie que les données ne sont pas disponibles.

Passez la souris sur les pictos temps pour avoir plus de précisions. Passez les flèches sur l'icône de la direction du vent pour voir la direction précise en degrés.

Les données de l'heure en cours sont disponibles à partir de H+15 minutes.


S signifie station Synop, plus complète qu'une station Metar (M). Il y a +1h de différence entre l'heure UTC et l'heure légale en hiver et +2h en été.

Td est la mesure du point de rosée.

HR est l'humidité relative/p>

Vis est la visibilité

Néb est la nébulosité du ciel (couverture nuageuse) exprimée en octas (de 0/8 à 8/8).

Vent moy 10 min donne le vent moyen sur les 10 minutes qui précèdent le relevé.

Vent raf 1h donne la rafale maximale mesurée dans l'heure qui précède le relevé.


Les données les plus anciennes remontent à avril 2014.

Les données présentées sur cette page proviennent des stations météo officielles. Les relevés sont effectués aux normes en vigueur (anémomètre à 10m de haut, thermomètre sous abri normalisé à 2m du sol...)

Météo 60 décline toute responsabilité en cas d'absence de données, d'erreurs, de mauvaise utilisation ou interprétation et n'est pas habilité à fournir des certificats intempéries.